Home   Weather   Pratteln   Past weeks

Flag for Switzerland Past Weather in Pratteln, Basel-Land, Switzerland — Yesterday and Last 2 Weeks

Now
59 °F

Passing clouds.


Feels Like: 58 °F
Forecast: 32 / 63 °F
Wind: 6 mph from North

Location: Bale-Mulhouse

Current Time: Apr 29, 2017 at 3:51:34 pm

Latest Report: Apr 29, 2017 at 3:30 pm


Visibility: N/A

Pressure: 30.01 "Hg

Humidity: 29%

Dew Point: 27 °F

Location of PrattelnLocation

Past Weather in Pratteln — Graph

°F

Pratteln Temperature Yesterday

Maximum temperature yesterday: 52 °F (at 4:30 pm)
Minimum temperature yesterday: 39 °F (at 12:00 am)
Average temperature yesterday: 43 °F

High & Low Weather Summary for the Past Weeks

 TemperatureHumidityPressure
High70 °F (Apr 24, 4:30 pm)100% (Apr 17, 4:30 am)30.54 "Hg (Apr 17, 4:30 am)
Low25 °F (Apr 20, 7:00 am)19% (Apr 21, 6:00 pm)29.74 "Hg (Apr 25, 5:30 pm)
Average46 °F71%30.13 "Hg
* Reported Apr 14 2:00 pm — Apr 29 2:30 pm, Pratteln, Weather by CustomWeather, © 2017

Note: Actual official high and low records may vary slightly from our data, if they occured in-between our weather recording intervals... More about our weather records

Advertising

Pratteln Weather History for the Previous 24 Hours

Scroll right to see more
 ConditionsComfort  
Time TempWeatherWind HumidityBarometerVisibility
2:30 pm
Sat, Apr 29
59 °FPassing clouds.3 mph29%30.01 "HgN/A
2:00 pm57 °FPassing clouds.5 mph31%30.01 "HgN/A
1:30 pm57 °FPassing clouds.5 mph36%30.04 "HgN/A
12:00 pm54 °FPassing clouds.5 mph47%30.04 "HgN/A
11:30 am54 °FPassing clouds.3 mph54%30.07 "HgN/A
11:00 am52 °FPassing clouds.5 mph58%30.07 "HgN/A
10:30 am48 °FPassing clouds.5 mph66%30.07 "HgN/A
9:30 am45 °FPassing clouds.8 mph76%30.09 "HgN/A
9:00 am43 °FPassing clouds.8 mph81%30.09 "Hg5 mi
8:30 am41 °FPassing clouds.8 mph81%30.09 "Hg5 mi
8:00 am39 °FClear.5 mph87%30.09 "Hg5 mi
7:00 am36 °FClear.5 mph93%30.09 "Hg5 mi
6:30 am34 °FClear.6 mph93%30.09 "Hg4 mi
6:00 am34 °FClear.5 mph100%30.09 "Hg4 mi
5:30 am34 °FClear.3 mph100%30.09 "Hg4 mi
5:00 am36 °FClear.5 mph93%30.09 "Hg4 mi
4:30 am36 °FClear.5 mph93%30.09 "Hg4 mi
4:00 am36 °FClear.3 mph93%30.09 "Hg4 mi
3:30 am37 °FClear.5 mph93%30.09 "Hg5 mi
3:00 am36 °FClear.7 mph93%30.09 "Hg10 mi
2:30 am37 °FClear.3 mph93%30.09 "Hg10 mi
2:00 am37 °FClear.5 mph93%30.09 "Hg10 mi
1:30 am37 °FClear.3 mph93%30.09 "Hg10 mi
1:00 am37 °FPassing clouds.3 mph93%30.09 "HgN/A
12:30 am36 °FClear.3 mph93%30.09 "Hg10 mi
12:00 am37 °FPassing clouds.3 mph93%30.09 "HgN/A
11:30 pm
Fri, Apr 28
39 °FPassing clouds.3 mph87%30.07 "HgN/A
11:00 pm41 °FPassing clouds.3 mph87%30.07 "HgN/A
10:30 pm41 °FPassing clouds.2 mph87%30.07 "HgN/A
10:00 pm43 °FPassing clouds.3 mph81%30.07 "HgN/A
9:30 pm45 °FPassing clouds.3 mph76%30.04 "HgN/A
9:00 pm45 °FPassing clouds.3 mph76%30.04 "HgN/A
8:30 pm46 °FBroken clouds.3 mph76%30.04 "HgN/A
8:00 pm46 °FBroken clouds.6 mph76%30.04 "HgN/A
7:30 pm46 °FBroken clouds.5 mph76%30.04 "HgN/A
7:00 pm48 °FBroken clouds.3 mph62%30.04 "HgN/A
6:30 pm48 °FBroken clouds.2 mph62%30.01 "HgN/A
6:00 pm46 °FRain. Partly sunny.6 mph71%30.01 "Hg6 mi
5:30 pm46 °FBroken clouds.5 mph71%30.01 "HgN/A
5:00 pm48 °FPartly sunny.10 mph62%30.01 "HgN/A
4:30 pm52 °FBroken clouds.10 mph58%30.01 "HgN/A
4:00 pm50 °FBroken clouds.9 mph62%30.01 "HgN/A
3:00 pm48 °FBroken clouds.8 mph66%30.01 "HgN/A
Weather by CustomWeather, © 2017

See weather overviewHow to use our weather pages